Theta_e
315 317 321 323 327 328 329 329 329 330 329 329 328 328 327 325 326 326 327 328 328 328 327 326 326 327 325 324 324 324 324 324 322 321 320 317 317 316 315 313 312 310 309
314 315 315 316 319 323 325 326 327 328 330 330 329 329 328 327 326 326 327 327 328 327 327 328 326 325 324 323 324 324 324 323 321 320 319 317 316 314 314 312 310 309 308
314 313 314 314 315 319 320 322 324 326 327 329 329 329 328 327 326 326 327 328 327 326 327 327 326 325 324 322 322 322 323 321 320 318 317 315 313 312 311 309 308 307 306
312 313 314 313 313 314 317 321 323 325 326 326 328 330 329 329 329 327 328 326 327 326 326 326 325 323 322 322 320 321 321 319 317 316 314 312 310 309 308 306 305 305 303
312 312 313 313 312 311 313 315 319 325 328 328 329 328 329 328 328 328 327 326 326 325 323 323 322 321 320 319 319 317 317 315 314 312 311 308 307 307 305 303 304 302 302
312 312 312 312 312 311 310 313 316 321 324 326 326 327 327 326 326 325 324 324 323 322 322 320 319 319 318 319 315 316 314 312 311 309 308 308 307 304 303 303 301 300 300
311 311 311 312 312 312 310 311 316 317 319 321 322 323 323 323 323 322 322 322 321 320 321 318 317 317 315 317 316 314 312 310 308 308 307 306 305 303 303 300 299 300 299
309 310 311 311 312 312 311 309 312 317 319 320 320 320 320 320 320 319 320 321 319 317 316 315 315 316 316 315 313 309 307 308 307 306 305 305 303 302 300 298 298 298 296
309 310 310 311 311 312 311 310 309 313 317 318 319 319 318 316 315 315 315 317 317 316 315 315 315 313 313 310 307 306 306 305 305 305 305 304 302 300 298 297 297 294 292
307 310 310 310 311 312 312 311 309 308 310 314 314 313 313 313 312 312 312 313 313 313 312 312 312 312 309 307 306 305 305 305 305 304 303 300 299 298 297 295 292 291 294
307 308 311 310 310 311 311 311 309 307 308 309 309 309 310 310 310 310 310 309 309 310 310 310 309 307 306 306 305 304 303 303 303 302 300 298 297 295 293 291 293 294 293
305 307 310 311 310 310 309 310 310 307 307 307 308 308 308 308 308 308 308 308 309 307 306 306 306 306 305 304 304 302 302 302 301 300 298 296 295 292 291 293 292 290 288
304 306 307 310 311 309 309 308 309 307 306 307 307 307 307 307 307 308 308 307 306 306 306 305 305 304 303 303 302 302 302 301 299 297 295 293 293 293 292 290 288 286 286
302 305 307 307 309 309 307 306 305 307 306 305 306 307 307 307 307 307 306 306 306 305 302 303 303 303 302 301 301 300 299 298 296 295 294 293 292 290 287 286 285 285 285
300 302 304 305 307 307 307 305 305 305 306 306 306 306 307 306 306 306 305 305 305 304 302 301 301 300 300 299 297 296 295 294 294 293 291 289 287 286 285 285 284 284 284
295 297 299 299 302 304 303 305 304 302 302 303 304 305 305 305 305 304 303 302 303 303 301 300 299 298 298 297 295 294 293 293 292 289 287 285 285 285 284 284 284 283 283
291 293 295 295 296 297 298 299 300 300 298 299 300 301 304 303 303 303 301 300 298 299 299 299 298 297 296 295 293 292 291 288 286 285 285 284 284 284 284 283 283 283 282
288 289 290 292 291 294 294 294 295 294 295 296 297 299 299 302 301 300 300 297 294 293 295 296 296 295 294 292 289 287 286 285 285 284 284 284 283 283 283 283 282 282 282
285 287 288 289 290 291 292 292 293 293 294 294 295 297 297 298 300 299 297 297 294 293 291 292 292 291 288 287 286 285 285 284 284 284 283 283 283 283 282 282 282 281 281
283 284 285 287 289 290 290 291 292 292 292 293 294 295 296 294 293 292 292 292 292 293 291 289 288 286 285 285 284 284 284 284 283 283 283 283 282 282 282 281 281 280 280
281 282 283 285 287 289 290 290 291 291 291 291 292 292 294 294 293 291 290 291 292 291 288 287 285 285 284 284 284 283 283 283 283 283 282 282 282 281 281 280 280 280 279
278 279 281 282 284 286 288 289 289 289 289 289 289 288 288 289 289 289 288 288 288 286 285 284 284 284 284 283 283 283 283 284 282 282 282 281 281 281 280 279 279 279 278
277 277 278 280 281 282 283 284 285 285 286 286 286 286 286 287 287 287 286 285 285 284 283 283 283 283 283 283 283 284 284 282 282 281 281 280 280 280 279 279 278 278 278
277 278 278 278 278 278 279 280 280 281 282 282 283 284 284 285 285 286 285 284 283 282 282 282 282 282 283 286 286 283 282 281 281 281 280 279 279 278 278 278 277 277 277
277 277 277 277 277 277 277 278 278 278 279 279 280 281 280 280 280 281 281 281 281 281 282 282 282 285 286 284 281 280 280 280 280 280 279 279 278 277 277 277 276 276 276
274 275 275 276 276 276 276 277 277 277 278 278 278 278 278 278 279 279 279 280 280 280 281 283 284 283 283 280 279 279 280 280 279 278 278 277 277 277 276 276 275 275 274
Wind_Speed
19 25 29 33 37 40 43 45 45 44 43 43 43 42 40 37 36 36 38 38 39 39 38 37 35 32 32 31 31 30 29 30 28 32 30 33 27 24 26 27 25 25 20
17 17 22 26 31 37 41 42 43 43 43 43 43 42 41 39 38 38 38 38 38 38 37 36 33 31 33 32 30 29 28 28 27 31 28 28 29 26 29 24 23 20 16
20 19 19 22 25 31 36 37 39 41 42 42 43 44 42 41 40 39 38 38 38 37 35 34 34 34 34 33 32 29 29 29 30 27 30 29 29 29 25 21 21 19 15
25 22 22 21 24 26 29 33 35 38 40 43 41 41 41 41 39 38 38 38 37 36 34 34 35 35 34 32 35 28 29 28 29 30 28 28 28 26 21 21 20 18 14
29 27 25 24 24 25 28 30 32 33 36 38 40 41 41 41 40 38 37 37 36 34 35 36 36 36 33 34 28 29 30 30 30 29 27 26 26 22 20 18 19 15 14
34 32 29 27 28 27 27 31 32 34 35 37 39 39 39 39 37 35 35 35 35 37 37 36 35 32 31 27 29 28 28 30 30 25 21 23 22 19 18 18 14 12 12
35 34 31 30 30 29 30 30 33 35 35 37 38 38 38 37 37 37 37 37 37 36 36 33 32 30 30 30 30 29 30 29 25 23 21 18 19 18 17 14 12 12 14
36 35 31 31 31 31 32 33 32 34 37 37 38 39 39 39 38 37 34 34 34 33 31 30 31 30 31 30 28 26 23 23 23 20 17 17 18 18 15 12 12 13 12
34 37 33 30 32 32 34 34 34 34 34 36 37 36 36 35 35 34 32 32 32 32 32 32 32 30 29 27 24 21 21 20 19 19 17 17 17 15 12 12 12 11 9
36 34 37 33 31 33 33 34 37 37 37 36 36 36 36 36 35 35 34 34 34 35 34 32 31 29 27 24 22 20 18 18 19 19 16 15 14 13 11 10 8 8 10
43 38 34 37 37 34 32 34 37 41 41 40 39 39 38 38 36 35 35 34 33 33 33 32 31 27 26 24 23 20 18 18 19 17 15 15 14 13 10 7 6 7 9
47 43 37 35 36 37 33 33 36 42 44 44 43 42 41 40 38 37 36 33 32 33 32 29 28 27 25 23 22 22 21 19 18 17 15 16 14 12 9 6 5 5 6
49 47 42 39 37 35 36 34 36 41 46 48 47 46 45 43 41 39 37 35 34 31 28 27 27 25 24 24 24 23 21 19 18 17 16 15 13 10 9 7 6 5 6
51 48 44 43 40 37 36 38 39 42 46 50 50 49 47 45 44 41 40 38 35 31 30 32 29 28 25 25 24 23 21 19 17 17 15 14 11 9 8 6 5 5 6
48 49 46 43 43 41 39 39 41 43 46 49 52 51 50 50 47 44 43 42 40 37 36 34 33 31 28 27 24 23 22 19 18 17 15 13 10 9 7 5 4 5 5
48 48 47 45 43 42 40 40 40 42 45 48 49 49 48 45 43 42 41 39 38 38 37 36 34 32 30 28 27 25 23 21 19 17 15 12 11 9 6 5 5 5 6
45 47 47 42 41 41 39 37 39 40 42 45 45 47 47 40 37 35 37 37 36 37 38 37 35 33 31 29 27 25 23 21 18 17 15 12 10 8 7 6 6 6 7
40 41 41 40 37 36 37 35 35 38 39 44 43 43 42 36 31 32 35 36 34 34 36 36 34 33 31 28 26 24 22 20 17 15 12 10 9 8 8 8 8 8 8
34 34 32 32 33 33 33 32 35 37 41 42 42 41 39 32 31 35 37 42 43 38 35 33 33 30 27 25 23 21 19 17 16 14 12 11 10 10 10 10 10 9 9
28 26 25 26 27 28 30 31 33 37 39 41 42 43 39 34 35 37 42 42 41 39 37 32 29 26 24 22 21 20 19 17 15 13 12 12 12 12 11 11 10 10 10
26 23 21 22 21 25 28 28 32 34 37 36 35 38 41 41 42 45 46 44 40 36 32 28 26 24 22 22 20 19 17 15 14 14 15 14 14 13 12 12 11 10 10
24 20 17 16 17 17 18 22 25 27 30 33 31 34 39 40 43 43 39 33 31 29 26 25 24 22 21 19 18 16 14 15 17 16 16 15 14 14 14 13 12 11 11
25 22 17 13 11 10 10 11 14 17 21 23 28 29 29 26 26 25 25 25 24 24 24 22 21 20 19 17 14 14 18 18 17 17 17 16 16 15 15 14 13 12 12
29 29 29 26 21 14 9 4 1 5 8 11 14 16 19 19 20 20 20 20 20 20 19 19 18 17 17 16 16 20 20 18 18 19 18 18 17 17 17 16 15 14 12
30 30 29 27 26 24 22 20 19 15 12 10 7 7 9 11 13 14 14 14 15 16 17 20 19 18 19 18 20 19 18 17 18 19 20 20 19 19 19 17 16 15 14
29 28 26 25 24 23 21 19 17 14 12 11 8 6 5 5 7 9 11 14 16 18 18 21 23 22 21 19 19 18 20 20 20 21 21 21 21 20 20 18 18 16 15
Wind_Direction
273 256 253 249 249 251 250 252 250 249 250 248 249 251 251 250 248 247 247 248 249 251 255 258 258 256 257 257 258 261 261 264 263 273 276 283 282 282 284 289 288 283 283
325 281 265 261 254 250 252 253 254 248 244 246 248 250 251 250 249 246 245 246 248 251 253 248 257 257 255 259 260 259 256 259 259 270 274 276 282 280 282 282 286 282 278
321 316 294 284 268 258 257 255 253 250 246 244 244 248 248 247 246 244 244 246 250 253 253 254 255 255 255 260 261 259 257 257 263 264 271 270 274 276 276 277 286 276 282
321 308 309 301 285 277 268 261 256 251 247 243 238 238 242 244 243 245 244 250 250 253 252 251 252 253 257 257 260 251 257 260 265 264 263 268 269 269 271 283 280 278 278
324 317 307 304 299 284 276 268 260 249 243 242 241 239 242 243 244 245 246 248 249 250 250 251 252 253 256 260 255 259 260 260 261 261 261 262 264 272 278 270 271 278 291
322 321 317 310 302 294 280 268 257 251 248 245 244 244 244 247 248 249 246 246 245 246 248 249 254 252 250 249 253 254 255 256 256 257 255 254 263 263 257 263 270 286 308
319 316 314 313 307 297 288 274 259 253 250 247 246 246 247 248 247 247 243 241 242 244 246 244 246 246 247 246 249 251 252 248 248 249 246 252 250 251 255 256 267 290 295
322 313 308 308 305 302 291 282 271 257 249 247 245 244 245 246 244 244 241 240 242 242 243 241 240 242 247 246 247 247 243 241 242 238 239 239 247 251 248 260 280 282 295
320 323 311 301 300 295 289 284 277 265 255 249 246 244 243 244 243 242 239 237 236 236 236 236 239 241 240 242 238 236 235 233 231 237 235 234 241 245 255 267 266 280 297
320 318 318 303 292 294 290 280 275 267 260 252 248 246 246 246 246 245 242 239 238 238 237 236 234 235 235 229 228 229 231 230 229 231 236 235 236 243 251 254 272 299 323
319 313 312 313 298 286 287 282 269 265 259 255 251 249 247 245 243 241 241 242 239 238 234 233 231 226 224 223 220 222 230 230 224 222 222 227 232 237 240 252 284 304 312
313 311 307 307 307 290 283 279 274 263 257 253 250 247 246 244 241 239 237 235 234 234 235 229 224 218 220 220 216 219 221 222 219 216 216 221 224 228 236 247 267 282 296
305 307 306 302 301 297 285 278 272 262 255 252 249 247 245 242 238 235 232 229 229 227 223 221 218 217 214 212 212 215 217 214 210 206 209 219 221 223 228 239 254 269 291
302 301 302 300 298 296 287 278 269 263 255 252 250 247 247 241 236 232 228 225 223 217 213 212 213 215 213 212 211 213 213 210 208 206 206 209 211 210 221 232 258 296 313
300 299 297 296 294 291 289 282 273 266 260 254 252 251 246 245 241 236 230 225 220 213 210 208 209 208 208 207 205 205 204 203 200 199 199 197 196 203 217 237 268 297 308
298 296 295 296 292 287 285 284 278 270 260 255 253 250 251 250 247 243 234 228 222 214 208 209 209 209 206 205 202 200 200 200 197 192 191 190 196 203 217 240 264 284 299
294 292 291 290 287 284 281 280 277 272 261 254 251 250 247 247 248 243 236 227 221 214 210 209 210 209 206 205 203 200 195 189 186 188 189 192 197 208 230 249 269 280 290
297 293 289 286 284 276 276 277 276 265 256 249 244 243 245 240 236 234 225 218 212 215 214 210 207 205 203 201 199 195 189 188 188 188 192 200 211 226 240 250 256 264 274
307 300 293 286 282 276 278 277 273 264 256 249 245 239 239 233 222 217 218 212 208 208 209 204 203 201 199 197 196 191 188 188 191 198 204 213 224 234 241 248 255 264 275
314 306 294 285 285 286 282 279 268 256 250 245 245 241 225 210 200 199 200 203 204 203 204 202 198 195 192 191 191 191 193 197 203 211 220 227 233 239 244 249 255 263 274
328 316 304 294 283 274 272 271 260 248 242 236 230 225 221 208 198 196 198 199 201 202 200 196 193 188 187 190 193 198 202 208 216 224 229 233 236 240 243 248 254 262 271
347 337 328 313 301 287 268 251 239 231 224 220 209 192 189 191 191 192 191 192 194 196 192 191 188 187 189 194 199 207 213 232 230 234 237 237 239 240 243 248 255 263 273
20 16 8 1 349 321 290 262 241 230 221 211 200 190 187 186 185 187 191 191 190 190 188 188 189 190 194 199 208 229 237 233 234 238 238 240 242 243 246 250 254 261 269
35 40 41 43 42 39 38 45 111 197 184 179 182 182 183 185 186 191 195 195 190 190 190 194 195 197 202 227 234 235 233 234 238 238 238 240 241 244 249 252 257 261 265
30 37 41 44 50 54 57 60 63 68 79 90 107 134 156 163 175 182 183 187 192 199 206 205 209 227 233 229 234 235 235 236 243 244 244 242 242 246 251 254 256 260 264
22 25 29 33 36 37 42 50 54 57 62 66 70 86 119 152 172 186 196 205 210 214 222 231 236 235 230 232 233 236 239 237 242 247 249 247 247 249 252 253 255 258 260